Location: Unspecified
(0.0000°N, 0.0000°E)
Time: 17:36:17
(UTC+00:00)

Altair - All Passes

Search period start: 28 March 2017 00:00
Search period end: 07 April 2017 00:00
Orbit: 1502 x 1682 km, 47.2° (Epoch: 26 March)

Date Brightness Start Highest point End Pass type
(mag) Time Alt. Az. Time Alt. Az. Time Alt. Az.
28 Mar - 00:10:52 10° WSW 00:19:38 43° NW 00:28:12 10° NNE night (unlit)
28 Mar - 08:53:56 10° NNE 08:59:08 16° NE 09:04:23 10° E daylight
28 Mar - 10:54:18 10° NW 11:04:02 82° NE 11:14:09 10° SE daylight
28 Mar - 13:02:06 10° W 13:09:01 21° SW 13:16:07 10° S daylight
28 Mar - 21:41:23 10° SSW 21:49:58 35° SE 21:58:13 10° ENE visible
28 Mar - 23:45:28 10° WSW 23:54:30 48° NW 00:03:17 10° NNE night (unlit)
29 Mar - 08:29:46 10° NNE 08:33:52 13° NE 08:38:00 10° ENE daylight
29 Mar - 10:29:13 10° NNW 10:38:52 74° NE 10:48:54 10° SE daylight
29 Mar - 12:36:20 10° W 12:43:46 24° SW 12:51:24 10° S daylight
29 Mar - 21:16:29 10° S 21:24:46 31° SE 21:32:44 10° ENE visible
29 Mar - 23:20:07 10° SW 23:29:21 54° NW 23:38:19 10° NNE night (unlit)
30 Mar - 08:06:09 10° NNE 08:08:35 11° NE 08:11:02 10° ENE daylight
30 Mar - 10:04:09 10° NNW 10:13:43 67° NE 10:23:37 10° SE daylight
30 Mar - 12:10:40 10° W 12:18:31 27° SW 12:26:36 10° S daylight
30 Mar - 20:51:37 10° S 20:59:34 28° SE 21:07:13 10° ENE visible
30 Mar - 22:54:48 10° SW 23:04:13 61° NW 23:13:19 10° NNE night (unlit)
31 Mar - 09:39:08 10° NNW 09:48:33 60° NE 09:58:19 10° SE daylight
31 Mar - 11:45:05 10° WNW 11:53:17 30° SW 12:01:45 10° S daylight
31 Mar - 20:26:49 10° S 20:34:20 25° SE 20:41:37 10° E visible
31 Mar - 22:29:31 10° SW 22:39:05 69° NW 22:48:18 10° NNE visible
01 Apr - 00:41:45 10° WNW 00:44:04 11° NW 00:46:24 10° NNW night (unlit)
01 Apr - 09:14:08 10° NNW 09:23:23 53° NE 09:32:59 10° SE daylight
01 Apr - 11:19:34 10° WNW 11:28:04 34° SW 11:36:51 10° SSE daylight
01 Apr - 20:02:04 10° S 20:09:06 22° SE 20:15:56 10° E visible
01 Apr - 22:04:16 10° SW 22:13:56 77° NW 22:23:15 10° NE visible
02 Apr - 00:14:51 10° WNW 00:18:49 13° NW 00:22:46 10° NNW night (unlit)
02 Apr - 08:49:11 10° NNW 08:58:13 47° NE 09:07:35 10° ESE daylight
02 Apr - 10:54:06 10° WNW 11:02:51 38° SW 11:11:56 10° SSE daylight
02 Apr - 19:37:24 10° S 19:43:51 19° SE 19:50:08 10° E visible
02 Apr - 21:39:03 10° SW 21:48:48 85° NW 21:58:10 10° NE visible
02 Apr - 23:48:31 10° W 23:53:35 16° NW 23:58:36 10° NNW night (unlit)
03 Apr - 08:24:15 10° NNW 08:33:03 42° NE 08:42:09 10° ESE daylight
03 Apr - 10:28:41 10° WNW 10:37:39 43° SW 10:46:58 10° SSE daylight
03 Apr - 19:12:49 10° S 19:18:36 17° SE 19:24:14 10° E visible
03 Apr - 21:13:51 10° SW 21:23:40 86° SE 21:33:03 10° NE visible
03 Apr - 23:22:26 10° W 23:28:22 18° NW 23:34:11 10° N night (unlit)
04 Apr - 07:59:22 10° NNW 08:07:53 37° NE 08:16:40 10° ESE daylight
04 Apr - 10:03:21 10° WNW 10:12:27 48° SW 10:21:58 10° SSE daylight
04 Apr - 18:48:24 10° SSE 18:53:19 15° SE 18:58:08 10° ESE visible
04 Apr - 20:48:42 10° SW 20:58:31 78° SE 21:07:54 10° NE visible
04 Apr - 22:56:32 10° W 23:03:09 21° NW 23:09:39 10° N night (unlit)
05 Apr - 07:34:31 10° N 07:42:43 33° NE 07:51:09 10° ESE daylight
05 Apr - 09:38:02 10° NW 09:47:16 53° SW 09:56:55 10° SSE daylight
05 Apr - 18:24:14 10° SSE 18:28:01 13° SE 18:31:44 10° ESE visible
05 Apr - 20:23:34 10° SSW 20:33:21 70° SE 20:42:43 10° NE visible
05 Apr - 22:30:44 10° W 22:37:57 24° NW 22:45:01 10° N visible
06 Apr - 07:09:43 10° N 07:17:32 29° NE 07:25:32 10° ESE daylight
06 Apr - 09:12:45 10° NW 09:22:06 60° SW 09:31:51 10° SSE daylight
06 Apr - 18:00:45 10° SSE 18:02:41 11° SE 18:04:36 10° SE daylight
06 Apr - 19:58:28 10° SSW 20:08:12 63° SE 20:17:31 10° NE visible
06 Apr - 22:05:03 10° WSW 22:12:45 27° NW 22:20:17 10° N visible
